Theta_e
286 285 285 285 284 283 281 282 285 285 285 285 286 288 287 286 286 286 286 286 286 286
284 284 282 283 283 282 283 284 282 278 278 279 282 285 285 284 284 285 285 285 285 284
283 281 279 278 279 278 279 278 277 282 283 282 283 283 283 283 283 283 284 284 284 283
280 279 276 276 275 274 274 274 280 282 282 281 281 282 282 282 282 283 283 284 283 283
278 277 273 273 273 273 273 275 281 281 281 281 281 281 281 281 281 281 282 282 283 282
274 274 273 273 273 274 274 275 281 281 281 281 281 280 281 281 281 282 282 283 282 281
271 272 273 273 273 274 273 273 276 281 281 281 281 281 281 281 281 282 282 283 282 281
269 270 270 270 269 271 272 272 272 273 274 281 281 281 281 281 281 282 281 281 281 281
268 269 268 269 269 270 270 270 270 277 279 279 280 282 284 283 281 281 280 279 280 280
271 272 271 272 273 270 269 270 270 270 272 277 279 282 283 284 282 280 279 279 279 279
272 272 273 273 271 271 274 277 278 277 276 276 277 282 283 283 282 280 280 279 279 278
273 272 273 272 271 271 273 274 276 278 278 278 279 282 283 283 281 280 280 281 280 281
273 272 271 272 273 274 274 276 276 277 277 277 278 281 282 282 281 280 280 281 281 282
272 272 272 273 273 273 272 274 272 274 274 275 276 277 280 281 280 279 279 280 280 281
Wind_Speed
5 3 3 3 2 2 2 2 3 2 2 2 3 4 4 3 3 4 5 3 1 1
5 4 3 3 3 3 2 2 3 4 3 2 3 3 2 1 1 1 2 2 2 2
4 4 4 4 2 3 3 3 4 4 3 4 4 4 3 3 3 4 3 3 4 4
2 4 4 4 3 4 3 4 3 4 5 5 4 4 4 5 6 7 6 5 5 6
2 2 3 3 5 4 5 4 4 5 4 4 4 4 6 6 6 7 6 6 6 6
2 3 4 5 5 4 4 4 5 5 5 5 6 6 6 6 7 7 7 6 6 5
2 3 4 4 4 4 4 4 3 6 5 5 6 6 7 7 7 7 6 6 5 5
2 1 1 0 1 2 3 4 5 3 4 5 6 5 7 7 7 7 6 5 5 6
1 2 3 3 4 4 4 4 3 6 6 6 5 12 15 11 7 6 6 6 8 11
1 1 2 3 4 4 4 3 4 4 5 10 9 14 15 15 7 6 7 9 9 8
1 1 1 1 2 2 3 5 5 5 6 7 7 16 15 15 9 10 11 9 8 9
1 2 3 3 3 3 1 1 3 6 6 7 8 13 14 13 10 10 12 10 10 11
0 1 3 4 3 2 1 3 2 4 4 5 5 10 13 11 5 7 8 9 9 14
2 3 3 3 3 4 3 3 3 4 4 5 5 6 12 12 6 5 6 6 5 4
Wind_Direction
161 159 176 183 163 159 150 161 99 93 169 233 235 232 245 240 243 244 242 221 202 177
162 171 176 171 128 130 104 121 145 91 36 347 10 41 42 337 230 231 233 225 209 214
167 158 128 102 119 111 128 122 157 141 218 236 236 246 222 231 232 225 220 219 212 217
150 134 132 145 185 187 165 182 193 196 207 212 203 207 224 231 237 223 223 216 216 226
153 137 148 183 203 185 190 198 211 215 202 201 202 199 222 225 242 239 227 220 207 221
207 175 198 211 199 179 193 202 212 197 204 209 215 206 223 222 240 240 230 223 209 203
213 209 209 205 190 184 192 193 221 219 205 210 227 218 216 216 226 233 232 219 200 200
204 234 203 83 189 195 204 207 197 222 250 221 220 224 223 221 219 219 205 209 224 226
148 212 220 216 216 210 219 217 218 236 235 244 238 243 245 230 219 201 208 227 226 233
124 248 232 216 210 210 211 222 222 212 216 244 248 249 247 247 231 215 222 230 234 230
55 331 315 318 292 261 240 252 254 235 221 228 240 252 248 244 240 245 242 235 224 224
342 318 326 327 288 267 262 251 257 264 259 254 259 259 254 246 242 244 249 244 236 231
340 0 302 287 292 283 300 274 267 277 274 268 267 269 265 254 240 245 253 254 242 234
15 348 292 319 341 313 310 323 327 293 279 264 254 262 266 261 252 248 257 259 261 254